Wind_Speed
19 19 19 19 19 20 20 20 19 19 19 20 20 20 18 19 18 20 26 16 14 16 12 16 22 21 20 21 20 14 11 8 4 7 17 9 16 7 11 15 11 5 22 32 33
20 20 21 21 21 21 22 22 21 21 20 19 20 19 18 18 19 26 27 20 19 18 18 24 29 24 25 22 21 17 1 11 8 10 11 8 12 10 13 13 15 15 26 32 34
20 21 21 22 23 24 24 25 24 22 22 20 19 19 15 14 16 22 18 21 22 20 20 23 24 24 25 20 24 19 9 25 7 13 7 17 11 9 15 12 17 21 31 35 34
24 24 24 24 24 25 25 26 27 26 23 20 17 15 13 6 6 2 5 11 22 26 23 26 28 27 23 23 21 19 9 32 8 9 4 3 12 11 8 17 18 20 30 35 34
26 27 27 27 27 26 27 27 27 23 23 21 18 13 11 12 22 16 8 10 18 30 30 31 32 30 23 21 18 19 19 11 6 7 6 2 3 4 10 9 19 22 28 32 31
27 28 28 28 29 29 30 27 26 24 24 20 17 14 12 20 12 17 12 12 18 32 31 31 31 30 26 23 20 15 20 15 11 13 13 11 10 9 12 14 22 25 28 30 30
29 29 29 29 29 30 32 29 25 23 20 18 15 13 16 26 9 12 18 18 20 29 30 29 27 27 28 15 22 23 10 16 16 16 9 10 10 15 20 19 24 26 28 29 31
33 32 31 31 30 30 31 30 25 23 19 15 9 11 13 7 23 13 17 21 21 24 24 24 27 26 30 21 14 19 19 18 19 19 16 12 13 16 22 24 24 25 27 29 31
33 34 34 33 32 31 27 26 25 21 16 7 3 11 13 12 20 27 20 26 25 24 22 21 25 23 26 21 15 20 18 24 21 23 18 17 16 18 22 24 25 25 26 27 29
31 32 33 32 32 30 24 23 24 15 8 3 6 8 18 13 16 23 27 25 28 25 22 23 22 18 20 20 21 22 24 21 23 18 14 18 19 15 22 23 23 25 26 28 30
35 35 34 31 30 24 26 19 8 5 11 18 10 18 4 13 8 21 30 27 29 28 21 30 20 27 29 27 22 22 21 24 18 23 22 18 18 15 20 20 21 25 27 28 29
34 34 33 31 22 22 19 12 9 11 19 27 38 36 29 11 13 19 33 29 29 27 26 19 28 26 24 26 27 26 26 24 22 13 11 15 20 17 14 16 19 24 26 28 27
32 31 31 29 14 17 10 13 15 16 11 24 34 36 34 31 21 29 41 39 30 31 32 28 19 27 26 25 27 28 28 24 20 18 19 14 19 17 16 19 20 21 25 27 31
33 32 28 25 7 18 6 20 18 12 7 9 10 11 31 27 22 29 41 44 20 34 32 30 26 26 27 27 26 27 26 23 18 19 17 21 16 20 17 18 19 23 27 28 30
32 32 27 19 14 12 18 21 17 5 7 13 11 6 16 31 12 36 40 45 26 26 29 32 28 23 27 26 26 24 20 24 23 20 19 22 19 18 24 25 21 20 27 29 29
27 26 21 13 13 14 22 20 7 7 10 7 7 10 15 27 27 28 37 44 40 27 28 30 25 24 22 24 22 21 16 19 22 19 20 25 21 19 17 20 24 26 28 29 29
26 21 13 11 16 22 21 13 9 11 3 11 10 6 16 19 25 19 33 33 30 29 29 28 32 24 21 22 24 18 19 13 16 18 17 25 24 20 20 19 19 20 29 27 25
24 16 10 11 20 19 16 12 15 18 15 22 20 23 19 20 22 24 28 27 36 32 19 22 25 34 22 27 25 27 25 16 21 18 17 24 27 24 25 16 22 26 26 29 27
21 12 5 18 17 14 16 11 15 12 18 19 26 21 18 23 15 25 28 28 32 33 31 25 31 30 25 24 27 23 26 28 22 22 14 20 28 24 21 26 20 17 29 28 30
21 16 5 21 15 11 12 15 19 14 19 16 21 18 22 11 14 19 28 24 28 36 30 28 20 28 32 24 28 25 25 22 16 20 19 14 15 18 20 16 26 25 20 31 27
17 14 11 19 13 15 7 9 10 21 15 14 21 22 18 21 27 17 17 6 6 13 34 33 22 16 25 28 27 26 22 25 20 18 13 11 11 17 19 19 18 20 33 28 27
15 7 18 18 17 6 8 9 11 15 16 15 21 21 17 11 17 17 17 10 13 13 18 35 13 21 31 28 27 26 29 27 17 24 17 12 1 9 9 10 19 22 24 32 30
17 15 5 16 7 10 14 15 11 12 11 11 10 18 20 18 9 16 15 10 12 14 6 9 17 16 22 25 28 31 30 24 26 18 21 15 7 9 5 2 15 18 20 23 25
12 5 14 13 10 10 11 16 14 6 7 14 8 12 19 19 17 11 11 13 9 10 17 10 17 23 19 25 24 29 29 30 24 19 17 19 15 13 8 8 7 8 9 15 14
7 7 7 7 11 13 15 13 13 8 10 16 3 7 9 8 17 10 10 16 8 6 10 7 15 20 26 18 20 28 29 30 30 24 24 15 19 15 13 11 13 14 11 6 7
9 8 10 16 12 14 15 9 13 13 17 15 9 15 9 11 13 15 14 11 6 15 11 10 12 19 23 24 5 14 26 32 30 27 24 23 14 18 18 13 11 9 7 6 7
8 10 9 12 11 10 10 14 12 11 13 10 15 13 15 8 16 20 17 22 17 15 13 11 9 12 17 22 11 16 20 20 24 27 22 22 19 9 6 4 4 7 10 11 12
Wind_Direction
356 351 347 342 335 328 324 320 316 308 298 291 286 284 280 278 273 274 257 235 233 218 196 182 186 195 204 218 230 256 257 262 121 76 110 144 97 72 79 125 134 110 137 149 148
353 349 345 341 335 330 325 322 316 310 303 293 287 282 284 283 282 269 253 245 227 212 199 187 190 195 207 218 226 235 57 284 109 75 89 89 116 109 140 144 130 123 131 149 153
353 349 345 339 333 328 326 321 314 310 303 296 284 283 284 291 298 269 244 237 220 209 198 196 194 200 214 221 221 231 203 249 115 67 357 126 128 137 123 161 153 139 149 156 160
353 350 346 341 334 328 324 319 315 313 304 293 285 276 274 254 259 60 232 203 211 203 195 198 201 204 220 220 226 242 188 247 130 111 135 37 134 143 163 132 151 150 159 162 166
355 351 348 346 339 330 323 319 318 315 308 294 279 269 250 234 245 275 254 208 201 189 196 197 204 204 217 224 224 230 263 209 260 240 232 138 220 151 143 136 144 153 163 170 172
353 350 346 345 339 335 329 322 319 312 309 295 274 252 229 247 253 233 236 214 194 186 198 201 207 208 224 234 219 226 239 255 234 230 222 213 172 211 153 155 151 160 169 175 178
352 350 345 343 338 335 330 324 321 315 311 302 276 236 235 235 234 218 209 207 193 191 201 205 208 209 224 243 239 241 249 226 244 239 225 217 214 193 152 166 162 167 172 178 183
352 349 347 344 339 335 330 325 324 317 309 303 267 208 247 259 228 224 203 204 200 198 208 207 209 220 224 241 223 228 241 239 220 218 220 221 215 195 165 172 173 175 176 180 186
353 349 347 345 340 336 333 331 327 316 314 299 139 204 257 230 224 212 204 198 196 199 207 206 209 219 220 237 224 226 225 222 228 209 218 207 247 164 174 176 179 181 182 183 187
354 350 348 348 342 339 339 332 326 316 350 267 244 214 239 232 226 205 200 197 196 194 200 209 210 211 225 213 221 217 218 227 218 199 209 200 231 175 170 179 187 185 185 188 189
352 348 348 350 346 345 353 345 326 253 248 243 204 240 326 207 196 195 190 190 195 196 200 200 202 213 211 218 225 239 224 227 227 213 194 218 223 208 174 188 198 180 193 191 192
350 347 347 352 353 3 9 21 15 319 295 267 258 251 240 232 215 196 183 190 195 199 200 186 220 214 220 216 225 230 241 230 226 215 226 216 224 226 197 187 210 187 193 194 190
350 348 347 352 2 360 358 7 330 322 271 285 243 235 223 218 222 199 191 196 195 200 199 209 211 216 212 219 214 226 229 235 233 216 221 237 237 228 226 185 199 205 194 196 194
352 348 347 353 349 341 357 334 331 323 278 253 203 227 210 201 232 221 198 196 194 206 205 220 225 196 216 217 216 220 222 238 238 240 219 206 234 219 223 198 188 204 196 199 198
350 346 352 353 338 346 328 327 320 293 276 120 132 149 193 190 167 203 195 203 209 207 207 211 218 204 209 213 216 228 218 218 234 241 246 241 219 231 201 212 196 201 200 199 199
346 341 343 347 329 319 325 321 299 233 241 170 128 192 185 204 239 177 193 206 214 211 211 228 209 223 212 216 216 220 227 227 217 232 237 234 238 232 226 208 201 193 204 199 197
346 343 353 1 331 327 323 312 242 240 259 26 351 301 216 198 221 184 188 194 205 213 216 213 228 212 226 210 207 206 208 206 217 218 226 219 231 233 229 220 208 204 202 203 197
345 357 338 349 327 322 315 275 252 274 10 353 326 312 290 265 201 208 193 200 210 208 210 210 215 222 200 211 200 201 208 213 209 217 225 228 224 228 235 247 232 202 210 195 193
348 348 351 335 332 325 295 269 255 311 353 337 320 278 246 232 246 212 208 211 204 217 217 203 222 196 209 208 211 195 215 217 236 213 232 216 219 238 229 218 224 221 201 206 185
347 325 324 342 336 313 266 272 359 356 332 328 301 312 330 326 207 244 212 223 217 210 231 242 211 217 199 206 214 227 205 216 235 252 224 233 236 207 206 216 207 208 211 211 202
347 315 355 337 313 288 328 349 329 319 331 322 309 302 320 325 317 274 241 94 297 240 211 237 246 234 204 203 200 208 214 213 227 232 239 240 226 221 192 207 214 208 208 208 202
332 320 339 344 301 353 353 336 303 327 353 339 316 288 282 308 300 301 298 51 353 306 268 218 235 237 202 199 213 212 213 201 221 216 238 272 170 32 158 196 190 211 208 211 209
330 310 347 341 356 345 342 322 312 343 346 332 327 341 308 292 298 329 329 7 346 306 354 198 227 221 228 193 201 219 205 216 213 234 213 227 195 114 113 170 182 196 200 202 202
320 309 346 316 351 329 345 304 323 343 341 324 352 349 341 305 270 273 321 323 329 344 333 307 244 226 217 198 187 209 209 213 216 217 224 208 225 119 119 152 148 170 167 184 199
306 342 5 308 340 333 294 293 313 335 339 316 104 334 336 305 316 5 316 315 292 27 309 252 237 238 250 246 207 198 214 213 214 218 222 205 210 163 146 136 139 134 119 112 151
310 337 319 297 305 294 296 296 329 339 318 307 331 331 293 292 288 300 306 322 337 336 332 301 257 249 248 249 215 264 209 216 212 220 223 233 220 190 148 158 179 192 204 211 236
298 302 297 288 287 295 308 319 316 324 302 308 325 313 299 317 299 297 273 281 286 293 304 307 271 233 233 236 214 239 238 227 220 212 219 219 230 243 183 171 227 245 243 244 252
Height
1521 1517 1514 1511 1508 1504 1501 1498 1496 1494 1492 1490 1489 1489 1489 1489 1488 1486 1482 1486 1487 1489 1490 1493 1498 1499 1500 1497 1493 1487 1484 1474 1462 1473 1458 1466 1469 1476 1481 1488 1492 1495 1501 1512 1520
1520 1517 1513 1510 1506 1502 1498 1495 1492 1490 1488 1486 1485 1485 1485 1485 1484 1478 1477 1479 1483 1485 1488 1491 1492 1495 1495 1492 1487 1485 1486 1493 1458 1453 1458 1465 1469 1478 1481 1488 1494 1496 1505 1515 1520
1519 1516 1512 1508 1503 1499 1496 1492 1488 1486 1483 1482 1482 1481 1482 1483 1481 1468 1467 1471 1477 1481 1487 1489 1491 1492 1489 1484 1480 1476 1483 1483 1462 1461 1462 1463 1466 1475 1479 1484 1493 1498 1506 1513 1519
1518 1514 1510 1506 1501 1497 1493 1489 1485 1481 1479 1477 1478 1479 1479 1482 1473 1464 1465 1467 1470 1477 1484 1486 1486 1487 1482 1477 1474 1473 1470 1475 1460 1465 1466 1464 1464 1471 1477 1477 1490 1500 1507 1513 1518
1517 1513 1508 1503 1498 1493 1488 1485 1481 1477 1474 1472 1473 1475 1476 1477 1466 1465 1466 1465 1468 1472 1477 1479 1480 1480 1476 1471 1470 1469 1464 1464 1464 1467 1467 1469 1469 1471 1474 1483 1491 1500 1507 1514 1518
1516 1511 1505 1501 1495 1490 1484 1480 1476 1473 1469 1467 1468 1470 1472 1470 1462 1464 1464 1463 1465 1470 1473 1476 1476 1477 1476 1468 1467 1464 1467 1463 1465 1464 1464 1467 1467 1473 1473 1482 1489 1498 1505 1511 1516
1515 1510 1504 1499 1493 1487 1481 1475 1471 1468 1465 1463 1462 1464 1467 1457 1459 1460 1461 1462 1466 1468 1470 1472 1474 1475 1473 1468 1467 1465 1465 1464 1463 1464 1461 1465 1465 1467 1469 1481 1487 1495 1501 1507 1513
1513 1508 1503 1497 1491 1484 1478 1472 1468 1464 1461 1460 1459 1461 1455 1450 1451 1456 1458 1461 1465 1467 1469 1470 1473 1473 1471 1469 1465 1466 1465 1467 1457 1458 1458 1462 1464 1459 1465 1477 1484 1491 1497 1503 1509
1511 1505 1500 1494 1488 1482 1475 1469 1464 1460 1457 1456 1458 1461 1450 1441 1444 1449 1453 1456 1461 1465 1467 1468 1470 1469 1470 1465 1466 1459 1465 1462 1453 1449 1451 1456 1456 1460 1461 1470 1478 1487 1493 1499 1505
1509 1503 1497 1492 1485 1479 1474 1468 1462 1458 1457 1457 1460 1464 1441 1436 1438 1441 1448 1453 1456 1461 1464 1464 1465 1465 1458 1458 1464 1459 1456 1446 1449 1439 1446 1448 1452 1458 1456 1462 1469 1479 1486 1493 1499
1507 1501 1495 1490 1483 1478 1473 1469 1466 1461 1461 1447 1443 1436 1431 1434 1435 1437 1443 1449 1452 1455 1453 1456 1458 1449 1448 1448 1448 1443 1441 1444 1433 1430 1440 1446 1448 1443 1448 1455 1460 1469 1479 1486 1492
1507 1500 1494 1488 1483 1479 1478 1476 1478 1478 1455 1441 1432 1432 1431 1432 1431 1432 1438 1442 1441 1439 1447 1451 1443 1440 1445 1445 1446 1446 1442 1438 1432 1430 1435 1440 1445 1438 1440 1447 1456 1461 1471 1478 1487
1506 1500 1493 1487 1483 1483 1482 1481 1479 1475 1460 1421 1413 1414 1419 1427 1422 1420 1428 1429 1430 1433 1432 1430 1428 1437 1437 1439 1443 1442 1441 1436 1436 1431 1432 1439 1445 1441 1436 1441 1451 1455 1464 1471 1477
1505 1499 1493 1486 1485 1482 1481 1480 1477 1475 1454 1401 1397 1396 1406 1416 1412 1412 1417 1423 1421 1421 1423 1426 1419 1425 1430 1432 1433 1439 1433 1434 1436 1438 1448 1435 1461 1440 1433 1436 1444 1450 1455 1463 1470
1503 1497 1493 1487 1485 1485 1484 1478 1475 1474 1441 1378 1391 1395 1395 1399 1387 1398 1407 1416 1407 1413 1418 1412 1413 1417 1424 1423 1425 1430 1426 1436 1439 1441 1441 1434 1445 1424 1423 1432 1432 1440 1447 1453 1461
1503 1497 1492 1491 1487 1485 1481 1477 1475 1464 1429 1381 1387 1392 1393 1395 1387 1385 1399 1410 1412 1408 1405 1405 1406 1406 1410 1416 1420 1425 1430 1432 1436 1441 1450 1436 1435 1427 1414 1415 1419 1427 1437 1444 1451
1501 1495 1491 1488 1488 1483 1479 1475 1462 1441 1384 1395 1398 1386 1386 1384 1388 1377 1388 1397 1395 1410 1403 1402 1397 1399 1403 1411 1414 1423 1432 1449 1453 1443 1441 1423 1431 1420 1405 1406 1411 1419 1426 1435 1443
1499 1494 1490 1489 1486 1482 1479 1471 1461 1416 1425 1423 1420 1409 1398 1377 1376 1374 1381 1386 1390 1390 1391 1400 1409 1391 1392 1397 1406 1416 1418 1426 1448 1440 1430 1415 1423 1410 1401 1403 1406 1412 1419 1428 1436
1495 1494 1490 1489 1484 1480 1477 1459 1443 1436 1442 1440 1424 1396 1388 1379 1370 1371 1372 1375 1377 1377 1384 1381 1386 1373 1383 1390 1394 1406 1409 1399 1402 1396 1405 1399 1398 1392 1390 1397 1404 1405 1413 1418 1425
1495 1492 1489 1486 1481 1477 1467 1453 1456 1460 1452 1448 1438 1412 1400 1383 1379 1372 1368 1364 1368 1371 1372 1365 1380 1366 1376 1385 1388 1385 1397 1416 1404 1423 1420 1397 1393 1397 1391 1395 1393 1402 1408 1413 1418
1496 1489 1486 1484 1478 1470 1463 1459 1464 1462 1455 1451 1443 1435 1432 1423 1409 1376 1364 1369 1370 1366 1369 1367 1363 1362 1363 1372 1381 1389 1390 1397 1395 1394 1407 1414 1393 1365 1374 1382 1391 1394 1402 1407 1412
1499 1489 1487 1484 1471 1468 1470 1466 1466 1456 1456 1456 1450 1437 1435 1434 1427 1401 1374 1377 1392 1384 1368 1359 1364 1373 1354 1361 1368 1370 1382 1385 1399 1406 1392 1388 1387 1364 1364 1374 1385 1394 1397 1403 1408
1500 1489 1485 1484 1475 1472 1472 1468 1467 1465 1460 1461 1454 1454 1449 1438 1435 1425 1404 1396 1395 1386 1380 1362 1368 1375 1360 1359 1362 1367 1370 1371 1381 1380 1395 1404 1393 1373 1377 1379 1383 1390 1394 1399 1404
1503 1487 1486 1482 1481 1481 1478 1471 1466 1464 1463 1461 1464 1461 1452 1437 1429 1422 1422 1407 1401 1396 1397 1392 1368 1363 1351 1342 1353 1371 1364 1368 1371 1385 1385 1385 1381 1381 1384 1385 1389 1390 1394 1399 1404
1505 1495 1498 1487 1483 1485 1480 1473 1471 1466 1465 1461 1467 1466 1461 1452 1434 1442 1433 1417 1400 1399 1392 1387 1381 1365 1350 1339 1341 1353 1362 1361 1369 1372 1382 1373 1381 1376 1383 1389 1392 1397 1402 1406 1409
1511 1507 1501 1496 1490 1484 1476 1474 1468 1470 1469 1461 1459 1460 1457 1458 1453 1448 1446 1433 1421 1411 1401 1386 1388 1375 1362 1347 1358 1361 1347 1356 1359 1367 1371 1371 1371 1368 1379 1388 1394 1400 1405 1410 1414
1512 1509 1506 1495 1486 1483 1477 1473 1471 1475 1470 1465 1463 1461 1453 1451 1449 1442 1442 1434 1429 1425 1415 1405 1388 1378 1375 1364 1367 1379 1358 1351 1353 1359 1364 1378 1373 1367 1377 1385 1394 1401 1406 1409 1411